Location: Le Hiès Ruisseau
(43.3000°N, 0.4500°W)
Time: 01:58:23
(UTC+00:00)

Feng Yun 1-1 Rocket - Pass Details

Date: 28 January 2023
Orbit: 830 x 933 km, 99.1° (Epoch: 27 March)

Event Time Altitude Azimuth Distance (km) Brightness Sun altitude
Rises 18:45:14 0° 147° (SSE) 3,492 7.2 -17.8°
Reaches altitude 10° 18:47:43 10° 142° (SE) 2,540 6.4 -18.2°
Maximum altitude 18:53:07 49° 69° (ENE) 1,106 4.4 -19.2°
Drops below altitude 10° 18:58:25 10° 356° (N) 2,492 6.6 -20.1°
Sets 19:00:50 0° 351° (N) 3,420 7.4 -20.6°
